Home > Weather > Cumberland County > Past weeks

Flag for Canada Weather for the Past 2 Weeks in Cumberland County, Nova Scotia, Canada

Now
25 °F

Cold.


Feels Like: 14 °F
Forecast: 22 / 27 °F
Wind: 12 mph from Northeast

Location: Kentville

Current Time: Feb 9, 2016 at 6:13:25 AM

Latest Report: Feb 9, 2016 at 5:00 AM


Visibility: N/A

Pressure: 29.54 "Hg

Humidity: 92%

Dew point: 23 °F

Location of Cumberland CountyLocation

Historic Weather in Cumberland County — Graph

°F

Cumberland County Temperature Yesterday

Maximum temperature yesterday: 25 °F (at 2:00 PM)
Minimum temperature yesterday: 16 °F (at 2:00 AM)
Average temperature yesterday: 21 °F

High & Low Weather Summary for the Past Weeks

 TemperatureHumidityPressure
High56 °F (Feb 1, 3:00 PM)100% (Jan 29, 4:00 AM)30.53 "Hg (Jan 29, 4:00 AM)
Low10 °F (Jan 26, 3:00 AM)38% (Feb 2, 4:00 PM)29.14 "Hg (Jan 29, 5:00 PM)
Average31 °F81%29.95 "Hg
* Reported Jan 25 4:00 AM — Feb 9 4:00 AM, Cumberland County, Weather by CustomWeather, © 2016

Note: Actual official high and low records may vary slightly from our data, if they occured in-between our weather recording intervals... More about our weather records

Advertising

Cumberland County Weather History for the Previous 24 Hours

 ConditionsComfort  
Time TempWeatherWind HumidityBarometerVisibility
4:00 AM
Tue, Feb 9
25 °FCold.9 mph94%29.54 "HgN/A
3:00 AM24 °FCold.8 mph96%29.54 "HgN/A
2:00 AM24 °FCold.10 mph96%29.52 "HgN/A
1:00 AM24 °FCold.13 mph96%29.52 "HgN/A
12:00 AM24 °FCold.17 mph95%29.52 "HgN/A
11:00 PM
Mon, Feb 8
24 °FCold.16 mph96%29.54 "HgN/A
10:00 PM23 °FCold.17 mph96%29.57 "HgN/A
9:00 PM23 °FCold.16 mph96%29.62 "HgN/A
8:00 PM23 °FCold.16 mph97%29.67 "HgN/A
7:00 PM23 °FCold.16 mph96%29.70 "HgN/A
6:00 PM23 °FCold.18 mph97%29.73 "HgN/A
5:00 PM23 °FCold.20 mph91%29.76 "HgN/A
4:00 PM25 °FCold.18 mph78%29.80 "HgN/A
3:00 PM25 °FCold.16 mph76%29.85 "HgN/A
2:00 PM25 °FCold.20 mph75%29.83 "HgN/A
1:00 PM24 °FCold.16 mph78%29.88 "HgN/A
12:00 PM24 °FCold.14 mph79%29.93 "HgN/A
11:00 AM23 °FCold.14 mph76%30.01 "HgN/A
10:00 AM22 °FCold.15 mph76%30.02 "HgN/A
9:00 AM21 °FCold.14 mph78%30.09 "HgN/A
8:00 AM20 °FCold.13 mph80%30.13 "HgN/A
7:00 AM20 °FCold.10 mph76%30.15 "HgN/A
6:00 AM20 °FCold.10 mph69%30.18 "HgN/A
Weather by CustomWeather, © 2016

See weather overviewHow to use our weather pages